Location: Newark
(40.7636°N, 73.9728°W)
Time: 14:15:07
(UTC+00:00)

ISS - Visible Passes

Search period start: 22 September 2019 00:00
Search period end: 02 October 2019 00:00
Orbit: 411 x 421 km, 51.6° (Epoch: 22 September)

Date Brightness Start Highest point End Pass type
(mag) Time Alt. Az. Time Alt. Az. Time Alt. Az.
22 Sep -2.0 00:48:16 10° W 00:51:12 28° NNW 00:51:56 26° N visible
22 Sep -2.6 23:59:27 10° WSW 00:02:37 42° NNW 00:05:39 11° NE visible
23 Sep -0.4 01:38:04 10° NW 01:38:33 12° NW 01:38:33 12° NW visible
24 Sep -1.3 00:48:59 10° WNW 00:51:18 17° NNW 00:52:07 16° N visible
24 Sep -1.6 23:59:56 10° WNW 00:02:37 22° NNW 00:05:17 10° NNE visible
26 Sep -1.1 00:49:46 10° NW 00:51:29 13° N 00:51:52 13° N visible
27 Sep -1.1 00:00:41 10° NW 00:02:42 15° NNW 00:04:43 10° NNE visible
27 Sep -1.4 23:11:33 10° WNW 23:13:56 18° NNW 23:16:19 10° NNE visible
28 Sep -1.0 00:50:04 10° NNW 00:51:23 13° N 00:51:23 13° N visible
29 Sep -1.1 00:01:16 10° NNW 00:02:52 13° N 00:04:26 10° NNE visible
29 Sep -1.2 23:12:15 10° NW 23:14:01 14° N 23:15:47 10° NNE visible
30 Sep -1.1 00:49:40 10° NNW 00:50:47 14° N 00:50:47 14° N visible
01 Oct -1.4 00:01:10 10° NNW 00:02:59 14° N 00:04:02 12° NNE visible
01 Oct -1.3 23:12:32 10° NNW 23:14:07 13° N 23:15:44 10° NNE visible
